• In Germany
  • List of Countries
  • For 7 days
  • Water Temperature
  • Satellite Maps
  • Weather Map
  • Weather Widgets
  • user-avatar
    Login

    Hourly Weather Vitebsk

    Today, 21 July, Friday

    Time Temperature Precipitation Wind Pressure Humidity
    00:00 +13°C° 0 mm 1 mps 744 mmHg 93%
    01:00 +12°C° 0 mm 1 mps 745 mmHg 93%
    02:00 +12°C° 0 mm 1 mps 745 mmHg 94%
    03:00 +12°C° 0 mm 1 mps 745 mmHg 94%
    04:00 +12°C° 0 mm 1 mps 745 mmHg 95%
    05:00 +10°C° 0 mm 2 mps 745 mmHg 95%
    06:00 +13°C° 0 mm 2 mps 745 mmHg 91%
    07:00 +15°C° 0 mm 2 mps 746 mmHg 86%
    08:00 +16°C° 0 mm 2 mps 746 mmHg 82%
    09:00 +18°C° 0 mm 2 mps 746 mmHg 73%
    10:00 +19°C° 0 mm 2 mps 746 mmHg 64%
    11:00 +21°C° 0 mm 2 mps 746 mmHg 55%
    12:00 +21°C° 0 mm 2 mps 746 mmHg 53%
    13:00 +23°C° 0 mm 2 mps 746 mmHg 51%
    14:00 +23°C° 0 mm 2 mps 746 mmHg 48%
    15:00 +23°C° 0 mm 2 mps 746 mmHg 50%
    16:00 +23°C° 0 mm 2 mps 746 mmHg 52%
    17:00 +23°C° 0 mm 1 mps 746 mmHg 54%
    18:00 +21°C° 0 mm 1 mps 746 mmHg 60%
    19:00 +19°C° 0 mm 1 mps 746 mmHg 67%
    20:00 +18°C° 0 mm 1 mps 747 mmHg 73%
    21:00 +16°C° 0 mm 1 mps 747 mmHg 76%
    22:00 +15°C° 0 mm 1 mps 747 mmHg 79%
    23:00 +14°C° 0 mm 1 mps 747 mmHg 82%

    Tomorrow, 22 July, Saturday

    Time Temperature Precipitation Wind Pressure Humidity
    00:00 +13°C° 0 mm 1 mps 747 mmHg 84%
    01:00 +13°C° 0 mm 1 mps 747 mmHg 86%
    02:00 +12°C° 0 mm 1 mps 747 mmHg 87%
    03:00 +13°C° 0 mm 1 mps 747 mmHg 87%
    04:00 +13°C° 0 mm 1 mps 747 mmHg 86%
    05:00 +13°C° 0 mm 1 mps 747 mmHg 86%
    06:00 +15°C° 0 mm 1 mps 747 mmHg 80%
    07:00 +16°C° 0 mm 1 mps 747 mmHg 74%
    08:00 +18°C° 0 mm 2 mps 748 mmHg 68%
    09:00 +21°C° 0 mm 1 mps 748 mmHg 63%
    10:00 +22°C° 0 mm 1 mps 748 mmHg 58%
    11:00 +23°C° 0 mm 1 mps 748 mmHg 54%
    12:00 +24°C° 0 mm 1 mps 748 mmHg 53%
    13:00 +24°C° 0 mm 1 mps 747 mmHg 52%
    14:00 +24°C° 0 mm 1 mps 747 mmHg 51%
    15:00 +24°C° 0 mm 1 mps 747 mmHg 54%
    16:00 +23°C° 0 mm 1 mps 747 mmHg 56%
    17:00 +23°C° 0 mm 2 mps 747 mmHg 59%
    18:00 +20°C° 0 mm 2 mps 747 mmHg 64%
    19:00 +19°C° 0 mm 2 mps 747 mmHg 70%
    20:00 +18°C° 0 mm 1 mps 747 mmHg 76%
    21:00 +16°C° 0 mm 1 mps 747 mmHg 78%
    22:00 +15°C° 0 mm 1 mps 747 mmHg 79%
    23:00 +14°C° 0 mm 1 mps 748 mmHg 81%

    Day after tomorrow, 23 July, Sunday

    Time Temperature Precipitation Wind Pressure Humidity
    00:00 +14°C° 0 mm 1 mps 748 mmHg 83%
    01:00 +13°C° 0 mm 1 mps 748 mmHg 85%
    02:00 +12°C° 0 mm 1 mps 748 mmHg 87%
    03:00 +12°C° 0 mm 1 mps 748 mmHg 87%
    04:00 +12°C° 0 mm 1 mps 748 mmHg 88%
    05:00 +12°C° 0 mm 2 mps 748 mmHg 88%
    06:00 +14°C° 0 mm 2 mps 748 mmHg 82%
    07:00 +16°C° 0 mm 2 mps 748 mmHg 75%
    08:00 +18°C° 0 mm 2 mps 749 mmHg 69%
    09:00 +20°C° 0 mm 2 mps 748 mmHg 64%
    10:00 +21°C° 0 mm 2 mps 748 mmHg 58%
    11:00 +23°C° 0 mm 2 mps 748 mmHg 52%
    12:00 +24°C° 0 mm 2 mps 748 mmHg 50%
    13:00 +24°C° 0 mm 2 mps 748 mmHg 49%
    14:00 +25°C° 0 mm 2 mps 748 mmHg 47%
    15:00 +25°C° 0 mm 2 mps 748 mmHg 49%
    16:00 +24°C° 0 mm 2 mps 748 mmHg 51%
    17:00 +24°C° 0 mm 1 mps 748 mmHg 53%
    18:00 +22°C° 0 mm 1 mps 748 mmHg 60%
    19:00 +21°C° 0 mm 1 mps 748 mmHg 66%
    20:00 +19°C° 0 mm 1 mps 748 mmHg 72%
    21:00 +18°C° 0 mm 1 mps 748 mmHg 75%
    22:00 +16°C° 0 mm 1 mps 748 mmHg 77%
    23:00 +14°C° 0 mm 0 mps 748 mmHg 79%

    24 July, Monday

    Time Temperature Precipitation Wind Pressure Humidity
    00:00 +14°C° 0 mm 0 mps 748 mmHg 82%
    01:00 +13°C° 0 mm 0 mps 748 mmHg 84%
    02:00 +12°C° 0 mm 0 mps 748 mmHg 86%
    03:00 +12°C° 0 mm 0 mps 748 mmHg 86%
    04:00 +12°C° 0 mm 0 mps 748 mmHg 85%
    05:00 +13°C° 0 mm 0 mps 748 mmHg 85%
    06:00 +15°C° 0 mm 0 mps 748 mmHg 79%
    07:00 +17°C° 0 mm 0 mps 748 mmHg 72%
    08:00 +19°C° 0 mm 0 mps 748 mmHg 66%
    09:00 +21°C° 0 mm 0 mps 748 mmHg 61%
    10:00 +24°C° 0 mm 1 mps 747 mmHg 56%
    11:00 +25°C° 0 mm 1 mps 747 mmHg 51%
    12:00 +26°C° 0 mm 1 mps 747 mmHg 50%
    13:00 +26°C° 0 mm 1 mps 747 mmHg 48%
    14:00 +26°C° 0 mm 1 mps 747 mmHg 47%
    15:00 +26°C° 0 mm 1 mps 746 mmHg 48%
    16:00 +26°C° 0 mm 1 mps 746 mmHg 50%
    17:00 +26°C° 0 mm 1 mps 746 mmHg 52%
    18:00 +24°C° 0 mm 1 mps 746 mmHg 58%
    19:00 +22°C° 0 mm 1 mps 746 mmHg 65%
    20:00 +20°C° 0 mm 1 mps 746 mmHg 71%
    21:00 +19°C° 0 mm 1 mps 746 mmHg 73%
    22:00 +18°C° 0 mm 1 mps 746 mmHg 74%
    23:00 +17°C° 0 mm 2 mps 746 mmHg 76%

    25 July, Tuesday

    Time Temperature Precipitation Wind Pressure Humidity
    00:00 +16°C° 0 mm 2 mps 746 mmHg 77%
    01:00 +16°C° 0 mm 2 mps 746 mmHg 78%
    02:00 +16°C° 0 mm 2 mps 746 mmHg 79%
    03:00 +15°C° 0 mm 2 mps 746 mmHg 81%
    04:00 +15°C° 0 mm 2 mps 746 mmHg 82%
    05:00 +15°C° 0 mm 2 mps 746 mmHg 83%
    06:00 +17°C° 0 mm 2 mps 746 mmHg 79%
    07:00 +19°C° 0 mm 2 mps 746 mmHg 74%
    08:00 +21°C° 0 mm 2 mps 746 mmHg 69%
    09:00 +23°C° 0 mm 2 mps 745 mmHg 64%
    10:00 +24°C° 0 mm 3 mps 745 mmHg 59%
    11:00 +26°C° 0 mm 3 mps 745 mmHg 54%
    12:00 +26°C° 0 mm 3 mps 745 mmHg 53%
    13:00 +27°C° 0 mm 3 mps 745 mmHg 52%
    14:00 +27°C° 0 mm 3 mps 744 mmHg 51%
    15:00 +27°C° 0 mm 3 mps 744 mmHg 54%
    16:00 +26°C° 0 mm 3 mps 744 mmHg 57%
    17:00 +26°C° 0 mm 3 mps 744 mmHg 60%
    18:00 +24°C° 0 mm 3 mps 744 mmHg 66%
    19:00 +23°C° 0 mm 2 mps 744 mmHg 73%
    20:00 +20°C° 0 mm 2 mps 744 mmHg 80%
    21:00 +19°C° 0 mm 2 mps 744 mmHg 81%
    22:00 +18°C° 0 mm 2 mps 744 mmHg 82%
    23:00 +17°C° 0 mm 3 mps 744 mmHg 83%

    26 July, Wednesday

    Time Temperature Precipitation Wind Pressure Humidity
    00:00 +17°C° 0 mm 2 mps 744 mmHg 84%
    01:00 +17°C° 0 mm 2 mps 744 mmHg 85%
    02:00 +16°C° 0 mm 2 mps 744 mmHg 85%
    03:00 +16°C° 0 mm 3 mps 744 mmHg 85%
    04:00 +16°C° 0 mm 3 mps 744 mmHg 86%
    05:00 +16°C° 0 mm 3 mps 743 mmHg 86%
    06:00 +18°C° 0 mm 3 mps 743 mmHg 81%
    07:00 +20°C° 0 mm 4 mps 743 mmHg 75%
    08:00 +22°C° 0 mm 4 mps 743 mmHg 70%
    09:00 +23°C° 0 mm 4 mps 743 mmHg 66%
    10:00 +25°C° 0 mm 5 mps 743 mmHg 62%
    11:00 +27°C° 0 mm 5 mps 743 mmHg 57%
    12:00 +27°C° 0 mm 5 mps 743 mmHg 56%
    13:00 +28°C° 0 mm 5 mps 743 mmHg 56%
    14:00 +28°C° 0 mm 5 mps 743 mmHg 55%
    15:00 +28°C° 0.1 mm 5 mps 742 mmHg 58%
    16:00 +28°C° 0.1 mm 4 mps 742 mmHg 61%
    17:00 +27°C° 0.1 mm 4 mps 742 mmHg 64%
    18:00 +26°C° 0.5 mm 3 mps 742 mmHg 72%
    19:00 +24°C° 0.5 mm 3 mps 742 mmHg 79%
    20:00 +21°C° 0.5 mm 2 mps 742 mmHg 86%
    21:00 +21°C° 1.2 mm 2 mps 742 mmHg 89%
    22:00 +20°C° 1.2 mm 2 mps 742 mmHg 91%
    23:00 +20°C° 1.2 mm 2 mps 742 mmHg 94%
    Show more